Location: McMath-Hulbert Observatory
(42.6964°N, 83.3187°W)
Time: 07:16:16
(UTC-05:00)

Daily predictions for brighter satellites

Satellite Brightness Start Highest point End
(mag) Time Altitude Azimuth Time Altitude Azimuth Time Altitude Azimuth
NOSS 3-2 (C) 4.2 18:38:05 10° SW 18:43:57 57° NW 18:50:32 10° NNE
Cosmos 2034 Rocket 4.5 18:38:44 10° N 18:44:40 39° ENE 18:50:33 10° SE
Cosmos 1812 2.7 18:43:10 10° N 18:47:04 80° E 18:50:55 10° S
Meteor 1-20 Rocket 4.4 18:42:10 10° S 18:47:42 54° E 18:53:21 10° NNE
SKYMED 2 3.6 18:44:47 10° NNE 18:49:09 87° WNW 18:53:29 10° SSW
Envisat 4.3 18:45:54 10° ESE 18:49:29 20° ENE 18:53:04 10° NNE
MOS 1 4.3 18:45:53 10° SSE 18:51:32 82° ENE 18:57:15 10° NNW
Cosmos 468 4.5 18:46:49 10° S 18:52:03 70° ESE 18:57:16 10° NNE
Cosmos 2263 Rocket 3.8 18:50:00 10° ESE 18:52:09 12° E 18:54:20 10° ENE
ATLAS CENTAUR R/B 3.3 18:53:42 10° N 18:56:02 14° NE 18:58:21 10° ENE
Cosmos 1975 Rocket 3.9 18:52:17 10° NNE 18:56:13 30° ENE 19:00:10 10° SE
Cosmos 2082 4.5 18:51:53 10° SW 18:57:23 55° WNW 19:02:56 10° NNE
CENTAUR R/B 2.5 18:52:13 10° SSW 18:58:11 84° SE 19:05:05 10° NE
Okean 1 3.7 18:54:53 10° N 18:58:41 42° ENE 19:02:28 10° SSE
Meteor 1-14 Rocket 4.3 18:53:35 10° S 18:59:22 81° E 19:05:20 10° NNE
NOAA 12 4.2 18:55:20 10° SSE 19:00:39 87° W 19:06:01 10° NNW
MOS 1-B Rocket 4.2 18:57:07 10° S 19:03:21 75° WSW 19:09:02 10° NNW
Thor Agena Rocket 4.4 19:01:59 10° NE 19:06:12 25° E 19:10:20 10° SSE
Cosmos 1269 Rocket 4.1 19:01:17 10° S 19:06:24 53° ESE 19:11:32 10° NNE
USA 267 4.5 19:01:24 10° ENE 19:06:42 27° N 19:12:01 10° NW
Meteor 1-4 Rocket 3.9 19:04:30 10° SE 19:07:03 19° E 19:09:39 10° NE
BREEZE-M R/B 3.2 19:06:22 10° NW 19:08:40 63° NNE 19:14:37 11° ESE
USA 32 4.1 19:04:43 10° SSE 19:09:47 55° E 19:14:54 10° NNE
CZ-4 R/B 4.3 19:09:36 10° SSW 19:12:45 22° W 19:15:52 10° NW
Cosmos 1513 Rocket 4.5 19:09:20 10° N 19:15:44 80° E 19:21:56 10° S
Cosmos 1378 Rocket 3.6 19:11:28 10° N 19:15:53 84° W 19:20:20 10° S
OAO 2 Rocket 4.4 19:11:49 10° WSW 19:16:17 34° S 19:19:59 14° ESE
Resurs 01 Rocket 3.0 19:15:19 16° E 19:16:43 19° ENE 19:19:49 10° NNE
Meteor 1-18 Rocket 4.3 19:12:58 10° NNW 19:18:35 83° W 19:24:07 10° S
FREGAT/IRIS 2.5 19:15:54 10° SSE 19:18:49 58° ENE 19:21:45 10° N
EO 1 Del DPAF 3.3 19:15:43 10° NNE 19:19:33 82° WNW 19:23:21 10° SSW
Meteor 2-4 Rocket 4.3 19:14:48 10° N 19:20:02 34° ENE 19:25:07 10° SE
Cosmos 2227 4.3 19:14:32 10° S 19:20:04 53° ESE 19:25:36 10° NNE
Landsat 4 4.3 19:18:12 10° N 19:21:55 60° WNW 19:25:37 10° SSW
Iridium 4 Rocket 3.1 19:17:51 10° N 19:22:38 84° E 19:27:01 10° S
Meteor 1-25 Rocket 4.5 19:17:20 10° SSW 19:22:51 72° W 19:28:26 10° N
CZ-4C R/B 3.5 19:20:42 10° NNW 19:27:07 37° NE 19:31:56 19° E
Alouette 2 Rocket 4.1 19:24:24 10° SSE 19:27:25 26° E 19:30:37 10° NE
Cosmos 1437 Rocket 2.7 19:23:49 10° S 19:27:52 78° E 19:31:59 10° NNE
SL-8 R/B 4.3 19:23:52 10° W 19:28:32 52° NNW 19:31:56 18° ENE
Cosmos 1782 Rocket 3.5 19:24:09 10° S 19:28:34 75° E 19:32:58 10° NNE
Meteor 1-19 Rocket 4.2 19:23:23 10° N 19:28:50 57° ENE 19:34:18 10° SSE
Cosmos 1331 Rocket 4.2 19:27:38 10° N 19:32:48 49° ENE 19:37:33 12° SE
Cosmos 1633 4.2 19:30:44 10° SW 19:34:02 36° WNW 19:37:23 10° N
Meteor 1-11 Rocket 3.9 19:33:09 10° SSE 19:38:28 47° E 19:43:55 10° NNE
Spot 2 Rocket 4.4 19:37:43 25° E 19:38:58 28° ENE 19:43:15 10° N
Cosmos 1943 3.5 19:37:18 10° NNW 19:42:43 44° ENE 19:45:39 25° ESE
Tsikada Rocket 4.0 19:37:08 10° S 19:43:32 78° E 19:49:57 10° N
Sich 1 Rocket 4.3 19:39:18 10° SSW 19:43:42 57° W 19:48:07 10° N
USA 186 3.1 19:46:06 26° NNE 19:46:06 26° NNE 19:48:03 10° N
Gbstr 26 Del rocket 2.5 19:42:42 10° SW 19:46:24 77° SE 19:47:47 38° ENE
Cosmos 2251 Rocket 3.8 19:48:45 10° S 19:53:37 41° ESE 19:56:08 25° NE
Okean 2 Rocket 3.0 19:50:28 10° S 19:54:51 87° E 19:59:18 10° N
Cosmos 921 Rocket 4.5 19:51:25 10° NNW 19:55:38 40° W 19:59:47 10° S
ARGOS Delta rocket 3.6 19:51:17 10° NNE 19:56:06 75° E 20:00:37 10° S
ERS-2 3.5 19:55:04 10° S 19:58:33 40° W 20:02:03 10° NNW
Cosmos 1939 Rocket 3.3 20:01:05 42° NE 20:01:05 42° NE 20:04:32 10° N
SL-16 R/B 4.5 19:58:34 10° NW 20:03:03 24° WSW 20:07:30 10° SSW
Cosmos 1302 Rocket 4.1 19:59:12 10° N 20:04:17 51° ENE 20:05:18 45° ESE
Cosmos 2151 Rocket 3.5 20:00:06 10° S 20:04:29 58° E 20:08:53 10° NNE
SeaSat 1 2.3 20:04:38 34° SE 20:06:50 76° ENE 20:11:46 10° NNW
COSMOS 2455 2.7 20:06:45 10° SSW 20:12:45 79° ESE 20:17:37 16° NNE
Cosmos 1184 Rocket 3.4 20:10:46 10° NNW 20:13:29 53° NW 20:13:29 53° NW
Meteor 1-23 Rocket 4.2 20:08:36 10° N 20:14:24 62° ENE 20:16:31 39° SE
USA 215 3.2 20:11:44 30° ENE 20:15:08 68° SE 20:21:37 10° SW
Meteor 2-9 4.5 20:11:53 10° S 20:17:15 71° E 20:22:45 10° NNE
SJ-6B 4.1 20:15:28 10° SSW 20:19:01 38° W 20:22:40 10° NNW
Cosmos 2279 Rocket 4.1 20:13:04 10° N 20:19:08 50° ENE 20:19:44 48° E
Cosmos 1603 4.4 20:16:53 10° NW 20:22:21 51° WSW 20:27:45 10° S
Envisat 3.6 20:23:06 10° S 20:28:04 55° W 20:33:04 10° NNW
Resurs 1-3 3.7 20:33:27 71° WSW 20:33:34 72° WSW 20:37:59 10° NNW
Cosmos 2263 Rocket 2.1 20:29:38 10° SSW 20:35:12 88° WNW 20:37:36 36° NNE
ATLAS CENTAUR R/B 1.9 20:31:17 10° NW 20:34:39 57° NW 20:34:39 57° NW
Cosmos 1634 Rocket 4.2 20:34:36 10° NNW 20:40:44 68° W 20:46:50 10° S
USA 267 3.5 20:48:24 50° NE 20:48:49 51° NNE 20:55:06 10° NW
CENTAUR R/B 4.4 20:44:29 10° W 20:49:47 26° NNW 20:55:42 10° NNE
Resurs 01 Rocket 2.6 20:52:52 44° W 20:52:52 44° W 20:57:07 10° NNW
CZ-3C R/B 4.4 20:53:56 10° SSW 20:57:11 19° S 20:57:11 19° S
H-2A R/B 4.2 21:18:36 18° N 21:18:36 18° N 21:20:00 10° N
CZ-4C R/B 3.1 21:08:59 10° NW 21:16:10 65° WSW 21:17:10 59° SSW
USA 215 4.3 21:59:06 41° NW 21:59:06 41° NW 22:04:02 10° W
